SWR18L LFMN-LSGG

Flight info

Callsign SWR18L
Flight time N/A
Altitude 24000
Route IRMAR8A/04R IRMAR DCT KINES
Aircraft A320/M-SDE3FGHIRWY/LB1

Departure

Time N/A
Airport Nice-Côte d'Azur Airport (LFMN)

Arrival

Time 2026-05-07 20:44
Airport Geneva International Airport (LSGG)
Time Latitude Longitude Altitude Speed Heading
2026-05-07 20:16 44.92118 6.78210 24024 ft 389 kts 355°
2026-05-07 20:17 44.94822 6.78070 24027 ft 388 kts 354°
2026-05-07 20:17 44.97521 6.77912 24027 ft 388 kts 354°
2026-05-07 20:17 45.00218 6.77739 24034 ft 388 kts 354°
2026-05-07 20:17 45.02914 6.77555 24032 ft 388 kts 354°
2026-05-07 20:18 45.05608 6.77365 24039 ft 388 kts 354°
2026-05-07 20:18 45.08302 6.77176 24039 ft 388 kts 354°
2026-05-07 20:18 45.10996 6.76994 24038 ft 388 kts 354°
2026-05-07 20:18 45.13691 6.76816 24032 ft 388 kts 354°
2026-05-07 20:19 45.16383 6.76639 24029 ft 388 kts 354°
2026-05-07 20:19 45.18169 6.76522 24027 ft 387 kts 354°
2026-05-07 20:19 45.20859 6.76344 24031 ft 387 kts 354°
2026-05-07 20:19 45.23548 6.76165 24031 ft 387 kts 354°
2026-05-07 20:20 45.26237 6.75984 24034 ft 387 kts 354°
2026-05-07 20:20 45.28923 6.75802 24033 ft 387 kts 354°
2026-05-07 20:20 45.31610 6.75621 24035 ft 386 kts 354°
2026-05-07 20:20 45.35121 6.74993 24027 ft 383 kts 346°
2026-05-07 20:21 45.36892 6.74512 24029 ft 383 kts 346°
2026-05-07 20:21 45.39513 6.73798 24034 ft 384 kts 346°
2026-05-07 20:21 45.42133 6.73084 24033 ft 383 kts 346°
2026-05-07 20:21 45.44753 6.72368 24032 ft 383 kts 346°
2026-05-07 20:22 45.47369 6.71654 24029 ft 383 kts 346°
2026-05-07 20:22 45.49951 6.70953 24028 ft 383 kts 346°
2026-05-07 20:22 45.52566 6.70245 24020 ft 383 kts 346°
2026-05-07 20:22 45.55180 6.69547 24019 ft 382 kts 347°
2026-05-07 20:23 45.57800 6.68865 24019 ft 382 kts 347°
2026-05-07 20:23 45.60421 6.68191 24025 ft 382 kts 347°
2026-05-07 20:23 45.63037 6.67522 24022 ft 382 kts 347°
2026-05-07 20:23 45.65647 6.66853 24020 ft 381 kts 347°
2026-05-07 20:24 45.68253 6.66183 24022 ft 381 kts 347°
2026-05-07 20:24 45.70864 6.65510 24023 ft 381 kts 347°
2026-05-07 20:24 45.73470 6.64836 24014 ft 381 kts 347°
2026-05-07 20:24 45.76078 6.64153 24019 ft 381 kts 347°
2026-05-07 20:25 45.78679 6.63458 24022 ft 381 kts 346°
2026-05-07 20:25 45.81287 6.62751 23674 ft 383 kts 346°
2026-05-07 20:25 45.83878 6.62044 23014 ft 373 kts 346°
2026-05-07 20:25 45.86376 6.61366 22565 ft 358 kts 346°
2026-05-07 20:26 45.88779 6.60717 22120 ft 345 kts 347°
2026-05-07 20:26 45.91096 6.60093 21698 ft 332 kts 346°
2026-05-07 20:26 45.93299 6.59500 21295 ft 322 kts 346°
2026-05-07 20:26 45.95489 6.58906 20894 ft 319 kts 346°
2026-05-07 20:27 45.97666 6.58311 20497 ft 318 kts 346°
2026-05-07 20:27 45.99840 6.57713 20105 ft 318 kts 346°
2026-05-07 20:27 46.01999 6.57054 19711 ft 316 kts 340°
2026-05-07 20:27 46.04018 6.55853 19320 ft 313 kts 328°
2026-05-07 20:28 46.05812 6.54051 18930 ft 317 kts 316°
2026-05-07 20:28 46.07304 6.51724 18526 ft 316 kts 304°
2026-05-07 20:28 46.08544 6.49115 18104 ft 315 kts 302°
2026-05-07 20:28 46.09775 6.46507 17703 ft 314 kts 302°
2026-05-07 20:29 46.11001 6.43911 17326 ft 313 kts 302°
2026-05-07 20:29 46.12223 6.41322 16945 ft 312 kts 302°
2026-05-07 20:29 46.13443 6.38733 16563 ft 311 kts 302°
2026-05-07 20:29 46.14657 6.36155 16198 ft 311 kts 302°
2026-05-07 20:30 46.15871 6.33577 15809 ft 311 kts 302°
2026-05-07 20:30 46.17084 6.30989 15397 ft 311 kts 300°
2026-05-07 20:30 46.17926 6.28150 14994 ft 308 kts 280°
2026-05-07 20:30 46.18003 6.25095 14600 ft 306 kts 259°
2026-05-07 20:31 46.17329 6.22228 14252 ft 303 kts 240°
2026-05-07 20:31 46.16016 6.19871 13911 ft 302 kts 226°
2026-05-07 20:31 46.14548 6.17705 13573 ft 300 kts 226°
2026-05-07 20:31 46.13090 6.15555 13136 ft 300 kts 226°
2026-05-07 20:32 46.11648 6.13427 12884 ft 294 kts 226°
2026-05-07 20:32 46.10232 6.11336 12314 ft 289 kts 226°
2026-05-07 20:32 46.08853 6.09300 11893 ft 279 kts 225°
2026-05-07 20:32 46.07516 6.07353 11525 ft 268 kts 225°
2026-05-07 20:33 46.06208 6.05465 11171 ft 266 kts 224°
2026-05-07 20:33 46.04881 6.03562 10666 ft 272 kts 224°
2026-05-07 20:33 46.03556 6.01659 10398 ft 268 kts 224°
2026-05-07 20:33 46.02241 5.99770 10048 ft 267 kts 224°
2026-05-07 20:34 46.00924 5.97879 9645 ft 268 kts 224°
2026-05-07 20:34 45.99611 5.95994 9268 ft 266 kts 224°
2026-05-07 20:34 45.98317 5.94129 9097 ft 267 kts 224°
2026-05-07 20:34 45.96988 5.92220 8912 ft 271 kts 224°
2026-05-07 20:35 45.95689 5.90279 8734 ft 266 kts 227°
2026-05-07 20:35 45.94456 5.88356 8551 ft 257 kts 226°
2026-05-07 20:35 45.93257 5.86510 8367 ft 249 kts 226°
2026-05-07 20:35 45.92269 5.84539 8166 ft 242 kts 245°
2026-05-07 20:36 45.91922 5.82202 7938 ft 242 kts 270°
2026-05-07 20:36 45.92317 5.79859 7675 ft 243 kts 296°
2026-05-07 20:36 45.93402 5.77985 7453 ft 249 kts 322°
2026-05-07 20:36 45.94953 5.77003 7345 ft 241 kts 349°
2026-05-07 20:37 45.96575 5.77044 7282 ft 231 kts 14°
2026-05-07 20:37 45.98117 5.77723 7237 ft 232 kts 18°
2026-05-07 20:37 45.99654 5.78428 7181 ft 232 kts 18°
2026-05-07 20:37 46.01188 5.79132 7113 ft 231 kts 18°
2026-05-07 20:38 46.02632 5.80121 6949 ft 230 kts 38°
2026-05-07 20:38 46.03791 5.81701 6693 ft 230 kts 46°
2026-05-07 20:38 46.04916 5.83339 6402 ft 230 kts 46°
2026-05-07 20:38 46.06042 5.84975 6085 ft 230 kts 46°
2026-05-07 20:39 46.07168 5.86610 5773 ft 230 kts 47°
2026-05-07 20:39 46.08274 5.88217 5464 ft 228 kts 47°
2026-05-07 20:39 46.09388 5.89837 5165 ft 226 kts 48°
2026-05-07 20:39 46.10458 5.91394 4878 ft 209 kts 47°
2026-05-07 20:40 46.11446 5.92830 4640 ft 196 kts 47°
2026-05-07 20:40 46.12376 5.94186 4347 ft 185 kts 47°
2026-05-07 20:40 46.13267 5.95484 4097 ft 180 kts 47°
2026-05-07 20:40 46.14137 5.96754 3861 ft 177 kts 47°
2026-05-07 20:41 46.14995 5.98005 3628 ft 173 kts 45°
2026-05-07 20:41 46.15817 5.99205 3404 ft 164 kts 45°
2026-05-07 20:41 46.16609 6.00362 3193 ft 160 kts 45°
2026-05-07 20:41 46.17362 6.01461 2990 ft 147 kts 45°
2026-05-07 20:42 46.18056 6.02476 2796 ft 138 kts 45°
2026-05-07 20:42 46.18729 6.03459 2602 ft 137 kts 45°
2026-05-07 20:42 46.19400 6.04440 2421 ft 137 kts 45°
2026-05-07 20:42 46.20073 6.05425 2228 ft 138 kts 45°
2026-05-07 20:43 46.20748 6.06414 2040 ft 139 kts 46°
2026-05-07 20:43 46.21431 6.07411 1844 ft 140 kts 45°
2026-05-07 20:43 46.22113 6.08412 1644 ft 140 kts 46°
2026-05-07 20:43 46.22796 6.09413 1466 ft 139 kts 46°
2026-05-07 20:44 46.23438 6.10358 1397 ft 116 kts 46°
2026-05-07 20:44 46.23875 6.10997 1379 ft 64 kts 46°
2026-05-07 20:44 46.24117 6.11355 1376 ft 45 kts 46°
2026-05-07 20:44 46.24255 6.11574 1373 ft 23 kts 53°
2026-05-07 20:45 46.24326 6.11790 1369 ft 25 kts 74°
2026-05-07 20:45 46.24299 6.11946 1363 ft 8 kts 179°
2026-05-07 20:45 46.24243 6.11871 1362 ft 13 kts 225°
2026-05-07 20:45 46.24176 6.11773 1364 ft 17 kts 225°
2026-05-07 20:46 46.24087 6.11643 1368 ft 19 kts 225°
2026-05-07 20:46 46.23993 6.11501 1372 ft 19 kts 226°
2026-05-07 20:46 46.23906 6.11377 1376 ft 12 kts 224°
2026-05-07 20:46 46.23857 6.11306 1374 ft 9 kts 225°
2026-05-07 20:47 46.23806 6.11231 1378 ft 10 kts 226°
2026-05-07 20:47 46.23766 6.11170 1380 ft 6 kts 226°
2026-05-07 20:47 46.23741 6.11135 1380 ft 2 kts 219°
2026-05-07 20:47 46.23717 6.11139 1385 ft 4 kts 173°
2026-05-07 20:48 46.23704 6.11146 1386 ft 4 kts 151°
2026-05-07 20:48 46.23692 6.11163 1386 ft 0 kts 134°
2026-05-07 20:48 46.23685 6.11173 1387 ft 1 kts 134°
2026-05-07 20:48 46.23684 6.11174 1387 ft 0 kts 134°